Year,Month,Day,Hour,Minute,Value (Times are PST for temperature in C)
2005,08,02,00,00,15.10
2005,08,02,00,01,15.10
2005,08,02,00,02,15.00
2005,08,02,00,03,15.00
2005,08,02,00,04,15.00
2005,08,02,00,05,15.00
2005,08,02,00,06,15.00
2005,08,02,00,07,15.00
2005,08,02,00,08,14.90
2005,08,02,00,09,14.90
2005,08,02,00,10,14.90
2005,08,02,00,11,15.00
2005,08,02,00,12,15.00
2005,08,02,00,13,15.00
2005,08,02,00,14,15.00
2005,08,02,00,15,14.90
2005,08,02,00,16,14.90
2005,08,02,00,17,14.90
2005,08,02,00,18,14.90
2005,08,02,00,19,14.90
2005,08,02,00,20,14.90
2005,08,02,00,21,14.90
2005,08,02,00,22,14.80
2005,08,02,00,23,14.80
2005,08,02,00,24,14.80
2005,08,02,00,25,14.80
2005,08,02,00,26,14.80
2005,08,02,00,27,14.80
2005,08,02,00,28,14.80
2005,08,02,00,29,14.80
2005,08,02,00,30,14.80
2005,08,02,00,31,14.70
2005,08,02,00,32,14.70
2005,08,02,00,33,14.70
2005,08,02,00,34,14.70
2005,08,02,00,35,14.70
2005,08,02,00,36,14.60
2005,08,02,00,37,14.60
2005,08,02,00,38,14.60
2005,08,02,00,39,14.60
2005,08,02,00,40,14.60
2005,08,02,00,41,14.60
2005,08,02,00,42,14.60
2005,08,02,00,43,14.50
2005,08,02,00,44,14.50
2005,08,02,00,45,14.50
2005,08,02,00,46,14.50
2005,08,02,00,47,14.50
2005,08,02,00,48,14.50
2005,08,02,00,49,14.40
2005,08,02,00,50,14.40
2005,08,02,00,51,14.40
2005,08,02,00,52,14.50
2005,08,02,00,53,14.50
2005,08,02,00,54,14.50
2005,08,02,00,55,14.50
2005,08,02,00,56,14.50
2005,08,02,00,57,14.50
2005,08,02,00,58,14.50
2005,08,02,00,59,14.50
2005,08,02,01,00,14.50
2005,08,02,01,01,14.40
2005,08,02,01,02,14.40
2005,08,02,01,03,14.30
2005,08,02,01,04,14.30
2005,08,02,01,05,14.30
2005,08,02,01,06,14.30
2005,08,02,01,07,14.30
2005,08,02,01,08,14.30
2005,08,02,01,09,14.40
2005,08,02,01,10,14.40
2005,08,02,01,11,14.40
2005,08,02,01,12,14.40
2005,08,02,01,13,14.50
2005,08,02,01,14,14.50
2005,08,02,01,15,14.50
2005,08,02,01,16,14.40
2005,08,02,01,17,14.40
2005,08,02,01,18,14.50
2005,08,02,01,19,14.50
2005,08,02,01,20,14.50
2005,08,02,01,21,14.50
2005,08,02,01,22,14.50
2005,08,02,01,23,14.50
2005,08,02,01,24,14.50
2005,08,02,01,25,14.50
2005,08,02,01,26,14.60
2005,08,02,01,27,14.60
2005,08,02,01,28,14.60
2005,08,02,01,29,14.60
2005,08,02,01,30,14.60
2005,08,02,01,31,14.60
2005,08,02,01,32,14.60
2005,08,02,01,33,14.70
2005,08,02,01,34,14.60
2005,08,02,01,35,14.60
2005,08,02,01,36,14.60
2005,08,02,01,37,14.60
2005,08,02,01,38,14.50
2005,08,02,01,39,14.60
2005,08,02,01,40,14.60
2005,08,02,01,41,14.60
2005,08,02,01,42,14.60
2005,08,02,01,43,14.60
2005,08,02,01,44,14.50
2005,08,02,01,45,14.50
2005,08,02,01,46,14.50
2005,08,02,01,47,14.50
2005,08,02,01,48,14.50
2005,08,02,01,49,14.40
2005,08,02,01,50,14.40
2005,08,02,01,51,14.40
2005,08,02,01,52,14.40
2005,08,02,01,53,14.40
2005,08,02,01,54,14.40
2005,08,02,01,55,14.30
2005,08,02,01,56,14.30
2005,08,02,01,57,14.30
2005,08,02,01,58,14.30
2005,08,02,01,59,14.30
2005,08,02,02,00,14.30
2005,08,02,02,01,14.20
2005,08,02,02,02,14.20
2005,08,02,02,03,14.10
2005,08,02,02,04,14.10
2005,08,02,02,05,14.20
2005,08,02,02,06,14.20
2005,08,02,02,07,14.20
2005,08,02,02,08,14.20
2005,08,02,02,09,14.20
2005,08,02,02,10,14.20
2005,08,02,02,11,14.20
2005,08,02,02,12,14.20
2005,08,02,02,13,14.20
2005,08,02,02,14,14.10
2005,08,02,02,15,13.90
2005,08,02,02,16,13.80
2005,08,02,02,17,13.70
2005,08,02,02,18,13.70
2005,08,02,02,19,13.70
2005,08,02,02,20,13.70
2005,08,02,02,21,13.70
2005,08,02,02,22,13.70
2005,08,02,02,23,13.70
2005,08,02,02,24,13.70
2005,08,02,02,25,13.80
2005,08,02,02,26,13.70
2005,08,02,02,27,13.70
2005,08,02,02,28,13.70
2005,08,02,02,29,13.70
2005,08,02,02,30,13.70
2005,08,02,02,31,13.70
2005,08,02,02,32,13.70
2005,08,02,02,33,13.70
2005,08,02,02,34,13.70
2005,08,02,02,35,13.60
2005,08,02,02,36,13.60
2005,08,02,02,37,13.60
2005,08,02,02,38,13.60
2005,08,02,02,39,13.60
2005,08,02,02,40,13.50
2005,08,02,02,41,13.40
2005,08,02,02,42,13.40
2005,08,02,02,43,13.40
2005,08,02,02,44,13.50
2005,08,02,02,45,13.50
2005,08,02,02,46,13.50
2005,08,02,02,47,13.50
2005,08,02,02,48,13.40
2005,08,02,02,49,13.40
2005,08,02,02,50,13.40
2005,08,02,02,51,13.50
2005,08,02,02,52,13.40
2005,08,02,02,53,13.40
2005,08,02,02,54,13.40
2005,08,02,02,55,13.40
2005,08,02,02,56,13.40
2005,08,02,02,57,13.50
2005,08,02,02,58,13.50
2005,08,02,02,59,13.50
2005,08,02,03,00,13.50
2005,08,02,03,01,13.50
2005,08,02,03,02,13.50
2005,08,02,03,03,13.50
2005,08,02,03,04,13.50
2005,08,02,03,05,13.50
2005,08,02,03,06,13.40
2005,08,02,03,07,13.40
2005,08,02,03,08,13.40
2005,08,02,03,09,13.30
2005,08,02,03,10,13.30
2005,08,02,03,11,13.30
2005,08,02,03,12,13.20
2005,08,02,03,13,13.20
2005,08,02,03,14,13.10
2005,08,02,03,15,13.10
2005,08,02,03,16,13.00
2005,08,02,03,17,13.00
2005,08,02,03,18,13.00
2005,08,02,03,19,12.90
2005,08,02,03,20,12.90
2005,08,02,03,21,12.90
2005,08,02,03,22,12.90
2005,08,02,03,23,12.90
2005,08,02,03,24,12.90
2005,08,02,03,25,12.90
2005,08,02,03,26,12.90
2005,08,02,03,27,12.90
2005,08,02,03,28,12.90
2005,08,02,03,29,12.90
2005,08,02,03,30,12.90
2005,08,02,03,31,12.90
2005,08,02,03,32,12.80
2005,08,02,03,33,12.80
2005,08,02,03,34,12.80
2005,08,02,03,35,12.80
2005,08,02,03,36,12.80
2005,08,02,03,37,12.80
2005,08,02,03,38,12.80
2005,08,02,03,39,12.80
2005,08,02,03,40,12.80
2005,08,02,03,41,12.80
2005,08,02,03,42,12.80
2005,08,02,03,43,12.80
2005,08,02,03,44,12.80
2005,08,02,03,45,12.80
2005,08,02,03,46,12.80
2005,08,02,03,47,12.80
2005,08,02,03,48,12.80
2005,08,02,03,49,12.80
2005,08,02,03,50,12.80
2005,08,02,03,51,12.80
2005,08,02,03,52,12.80
2005,08,02,03,53,12.80
2005,08,02,03,54,12.90
2005,08,02,03,55,12.90
2005,08,02,03,56,12.90
2005,08,02,03,57,12.90
2005,08,02,03,58,12.90
2005,08,02,03,59,12.90
2005,08,02,04,00,12.80
2005,08,02,04,01,12.80
2005,08,02,04,02,12.80
2005,08,02,04,03,12.80
2005,08,02,04,04,12.80
2005,08,02,04,05,12.90
2005,08,02,04,06,12.90
2005,08,02,04,07,12.90
2005,08,02,04,08,12.90
2005,08,02,04,09,12.90
2005,08,02,04,10,12.90
2005,08,02,04,11,12.90
2005,08,02,04,12,12.90
2005,08,02,04,13,12.90
2005,08,02,04,14,12.80
2005,08,02,04,15,12.80
2005,08,02,04,16,12.80
2005,08,02,04,17,12.80
2005,08,02,04,18,12.80
2005,08,02,04,19,12.80
2005,08,02,04,20,12.80
2005,08,02,04,21,12.70
2005,08,02,04,22,12.70
2005,08,02,04,23,12.70
2005,08,02,04,24,12.60
2005,08,02,04,25,12.60
2005,08,02,04,26,12.50
2005,08,02,04,27,12.50
2005,08,02,04,28,12.50
2005,08,02,04,29,12.50
2005,08,02,04,30,12.50
2005,08,02,04,31,12.40
2005,08,02,04,32,12.40
2005,08,02,04,33,12.40
2005,08,02,04,34,12.30
2005,08,02,04,35,12.30
2005,08,02,04,36,12.30
2005,08,02,04,37,12.30
2005,08,02,04,38,12.30
2005,08,02,04,39,12.30
2005,08,02,04,40,12.30
2005,08,02,04,41,12.30
2005,08,02,04,42,12.40
2005,08,02,04,43,12.40
2005,08,02,04,44,12.30
2005,08,02,04,45,12.30
2005,08,02,04,46,12.40
2005,08,02,04,47,12.40
2005,08,02,04,48,12.50
2005,08,02,04,49,12.50
2005,08,02,04,50,12.50
2005,08,02,04,51,12.40
2005,08,02,04,52,12.40
2005,08,02,04,53,12.50
2005,08,02,04,54,12.40
2005,08,02,04,55,12.40
2005,08,02,04,56,12.30
2005,08,02,04,57,12.30
2005,08,02,04,58,12.40
2005,08,02,04,59,12.30
2005,08,02,05,00,12.30
2005,08,02,05,01,12.30
2005,08,02,05,02,12.30
2005,08,02,05,03,12.30
2005,08,02,05,04,12.30
2005,08,02,05,05,12.40
2005,08,02,05,06,12.40
2005,08,02,05,07,12.40
2005,08,02,05,08,12.30
2005,08,02,05,09,12.30
2005,08,02,05,10,12.40
2005,08,02,05,11,12.40
2005,08,02,05,12,12.40
2005,08,02,05,13,12.30
2005,08,02,05,14,12.30
2005,08,02,05,15,12.20
2005,08,02,05,16,12.20
2005,08,02,05,17,12.10
2005,08,02,05,18,12.10
2005,08,02,05,19,12.00
2005,08,02,05,20,12.00
2005,08,02,05,21,12.00
2005,08,02,05,22,12.00
2005,08,02,05,23,11.90
2005,08,02,05,24,11.90
2005,08,02,05,25,11.90
2005,08,02,05,26,11.90
2005,08,02,05,27,11.90
2005,08,02,05,28,11.90
2005,08,02,05,29,12.00
2005,08,02,05,30,12.00
2005,08,02,05,31,12.00
2005,08,02,05,32,12.00
2005,08,02,05,33,12.00
2005,08,02,05,34,12.10
2005,08,02,05,35,12.10
2005,08,02,05,36,12.10
2005,08,02,05,37,12.10
2005,08,02,05,38,12.10
2005,08,02,05,39,12.20
2005,08,02,05,40,12.20
2005,08,02,05,41,12.30
2005,08,02,05,42,12.20
2005,08,02,05,43,12.20
2005,08,02,05,44,12.20
2005,08,02,05,45,12.20
2005,08,02,05,46,12.20
2005,08,02,05,47,12.20
2005,08,02,05,48,12.20
2005,08,02,05,49,12.20
2005,08,02,05,50,12.20
2005,08,02,05,51,12.20
2005,08,02,05,52,12.10
2005,08,02,05,53,12.10
2005,08,02,05,54,12.10
2005,08,02,05,55,12.00
2005,08,02,05,56,12.00
2005,08,02,05,57,12.00
2005,08,02,05,58,12.00
2005,08,02,05,59,11.90
2005,08,02,06,00,11.90
2005,08,02,06,01,11.90
2005,08,02,06,02,12.00
2005,08,02,06,03,12.00
2005,08,02,06,04,12.00
2005,08,02,06,05,12.00
2005,08,02,06,06,12.00
2005,08,02,06,07,12.00
2005,08,02,06,08,12.10
2005,08,02,06,09,12.10
2005,08,02,06,10,12.10
2005,08,02,06,11,12.10
2005,08,02,06,12,12.00
2005,08,02,06,13,12.10
2005,08,02,06,14,12.10
2005,08,02,06,15,12.10
2005,08,02,06,16,12.10
2005,08,02,06,17,12.10
2005,08,02,06,18,12.10
2005,08,02,06,19,12.20
2005,08,02,06,20,12.30
2005,08,02,06,21,12.30
2005,08,02,06,22,12.30
2005,08,02,06,23,12.20
2005,08,02,06,24,12.20
2005,08,02,06,25,12.30
2005,08,02,06,26,12.30
2005,08,02,06,27,12.30
2005,08,02,06,28,12.30
2005,08,02,06,29,12.30
2005,08,02,06,30,12.40
2005,08,02,06,31,12.40
2005,08,02,06,32,12.50
2005,08,02,06,33,12.50
2005,08,02,06,34,12.60
2005,08,02,06,35,12.70
2005,08,02,06,36,12.80
2005,08,02,06,37,12.80
2005,08,02,06,38,12.90
2005,08,02,06,39,12.90
2005,08,02,06,40,12.90
2005,08,02,06,41,13.00
2005,08,02,06,42,13.00
2005,08,02,06,43,13.10
2005,08,02,06,44,13.10
2005,08,02,06,45,13.10
2005,08,02,06,46,13.10
2005,08,02,06,47,13.20
2005,08,02,06,48,13.20
2005,08,02,06,49,13.30
2005,08,02,06,50,13.30
2005,08,02,06,51,13.30
2005,08,02,06,52,13.20
2005,08,02,06,53,13.20
2005,08,02,06,54,13.20
2005,08,02,06,55,13.20
2005,08,02,06,56,13.20
2005,08,02,06,57,13.20
2005,08,02,06,58,13.20
2005,08,02,06,59,13.30
2005,08,02,07,00,13.30
2005,08,02,07,01,13.40
2005,08,02,07,02,13.50
2005,08,02,07,03,13.50
2005,08,02,07,04,13.50
2005,08,02,07,05,13.50
2005,08,02,07,06,13.50
2005,08,02,07,07,13.50
2005,08,02,07,08,13.50
2005,08,02,07,09,13.50
2005,08,02,07,10,13.50
2005,08,02,07,11,13.50
2005,08,02,07,12,13.60
2005,08,02,07,13,13.60
2005,08,02,07,14,13.60
2005,08,02,07,15,13.70
2005,08,02,07,16,13.70
2005,08,02,07,17,13.80
2005,08,02,07,18,13.90
2005,08,02,07,19,14.00
2005,08,02,07,20,14.10
2005,08,02,07,21,14.20
2005,08,02,07,22,14.20
2005,08,02,07,23,14.40
2005,08,02,07,24,14.60
2005,08,02,07,25,14.70
2005,08,02,07,26,14.90
2005,08,02,07,27,15.00
2005,08,02,07,28,15.10
2005,08,02,07,29,15.20
2005,08,02,07,30,15.30
2005,08,02,07,31,15.40
2005,08,02,07,32,15.50
2005,08,02,07,33,15.60
2005,08,02,07,34,15.70
2005,08,02,07,35,15.80
2005,08,02,07,36,16.00
2005,08,02,07,37,16.10
2005,08,02,07,38,16.20
2005,08,02,07,39,16.30
2005,08,02,07,40,16.40
2005,08,02,07,41,16.60
2005,08,02,07,42,16.70
2005,08,02,07,43,16.70
2005,08,02,07,44,16.70
2005,08,02,07,45,16.70
2005,08,02,07,46,16.50
2005,08,02,07,47,16.40
2005,08,02,07,48,16.20
2005,08,02,07,49,16.10
2005,08,02,07,50,16.10
2005,08,02,07,51,16.10
2005,08,02,07,52,16.10
2005,08,02,07,53,16.00
2005,08,02,07,54,15.90
2005,08,02,07,55,15.80
2005,08,02,07,56,15.80
2005,08,02,07,57,15.80
2005,08,02,07,58,16.00
2005,08,02,07,59,16.10
2005,08,02,08,00,16.20
2005,08,02,08,01,16.20
2005,08,02,08,02,16.30
2005,08,02,08,03,16.40
2005,08,02,08,04,16.50
2005,08,02,08,05,16.60
2005,08,02,08,06,16.70
2005,08,02,08,07,16.70
2005,08,02,08,08,16.80
2005,08,02,08,09,16.80
2005,08,02,08,10,16.90
2005,08,02,08,11,16.90
2005,08,02,08,12,17.00
2005,08,02,08,13,17.10
2005,08,02,08,14,17.20
2005,08,02,08,15,17.20
2005,08,02,08,16,17.10
2005,08,02,08,17,17.20
2005,08,02,08,18,17.30
2005,08,02,08,19,17.50
2005,08,02,08,20,17.50
2005,08,02,08,21,17.40
2005,08,02,08,22,17.40
2005,08,02,08,23,17.40
2005,08,02,08,24,17.40
2005,08,02,08,25,17.30
2005,08,02,08,26,17.30
2005,08,02,08,27,17.30
2005,08,02,08,28,17.40
2005,08,02,08,29,17.60
2005,08,02,08,30,17.50
2005,08,02,08,31,17.50
2005,08,02,08,32,17.40
2005,08,02,08,33,17.30
2005,08,02,08,34,17.30
2005,08,02,08,35,17.20
2005,08,02,08,36,17.20
2005,08,02,08,37,17.20
2005,08,02,08,38,17.30
2005,08,02,08,39,17.30
2005,08,02,08,40,17.30
2005,08,02,08,41,17.30
2005,08,02,08,42,17.30
2005,08,02,08,43,17.30
2005,08,02,08,44,17.40
2005,08,02,08,45,17.40
2005,08,02,08,46,17.40
2005,08,02,08,47,17.40
2005,08,02,08,48,17.40
2005,08,02,08,49,17.40
2005,08,02,08,50,17.40
2005,08,02,08,51,17.50
2005,08,02,08,52,17.60
2005,08,02,08,53,17.60
2005,08,02,08,54,17.60
2005,08,02,08,55,17.60
2005,08,02,08,56,17.60
2005,08,02,08,57,17.70
2005,08,02,08,58,17.80
2005,08,02,08,59,17.80
2005,08,02,09,00,17.80
2005,08,02,09,01,17.70
2005,08,02,09,02,17.70
2005,08,02,09,03,17.70
2005,08,02,09,04,17.70
2005,08,02,09,05,17.60
2005,08,02,09,06,17.60
2005,08,02,09,07,17.60
2005,08,02,09,08,17.70
2005,08,02,09,09,17.70
2005,08,02,09,10,17.70
2005,08,02,09,11,17.60
2005,08,02,09,12,17.50
2005,08,02,09,13,17.40
2005,08,02,09,14,17.50
2005,08,02,09,15,17.40
2005,08,02,09,16,17.40
2005,08,02,09,17,17.50
2005,08,02,09,18,17.60
2005,08,02,09,19,17.80
2005,08,02,09,20,17.90
2005,08,02,09,21,18.10
2005,08,02,09,22,18.20
2005,08,02,09,23,18.10
2005,08,02,09,24,18.10
2005,08,02,09,25,18.10
2005,08,02,09,26,18.00
2005,08,02,09,27,18.00
2005,08,02,09,28,18.10
2005,08,02,09,29,18.20
2005,08,02,09,30,18.20
2005,08,02,09,31,18.20
2005,08,02,09,32,18.20
2005,08,02,09,33,18.10
2005,08,02,09,34,18.10
2005,08,02,09,35,18.10
2005,08,02,09,36,18.10
2005,08,02,09,37,18.10
2005,08,02,09,38,18.10
2005,08,02,09,39,18.20
2005,08,02,09,40,18.20
2005,08,02,09,41,18.20
2005,08,02,09,42,18.20
2005,08,02,09,43,18.20
2005,08,02,09,44,18.20
2005,08,02,09,45,18.30
2005,08,02,09,46,18.30
2005,08,02,09,47,18.30
2005,08,02,09,48,18.20
2005,08,02,09,49,18.20
2005,08,02,09,50,18.20
2005,08,02,09,51,18.20
2005,08,02,09,52,18.20
2005,08,02,09,53,18.20
2005,08,02,09,54,18.20
2005,08,02,09,55,18.20
2005,08,02,09,56,18.20
2005,08,02,09,57,18.20
2005,08,02,09,58,18.10
2005,08,02,09,59,18.10
2005,08,02,10,00,18.10
2005,08,02,10,01,18.20
2005,08,02,10,02,18.30
2005,08,02,10,03,18.30
2005,08,02,10,04,18.20
2005,08,02,10,05,18.20
2005,08,02,10,06,18.20
2005,08,02,10,07,18.20
2005,08,02,10,08,18.20
2005,08,02,10,09,18.40
2005,08,02,10,10,18.40
2005,08,02,10,11,18.40
2005,08,02,10,12,18.40
2005,08,02,10,13,18.40
2005,08,02,10,14,18.40
2005,08,02,10,15,18.50
2005,08,02,10,16,18.50
2005,08,02,10,17,18.50
2005,08,02,10,18,18.60
2005,08,02,10,19,18.80
2005,08,02,10,20,18.90
2005,08,02,10,21,18.90
2005,08,02,10,22,18.80
2005,08,02,10,23,18.80
2005,08,02,10,24,18.80
2005,08,02,10,25,18.70
2005,08,02,10,26,18.60
2005,08,02,10,27,18.60
2005,08,02,10,28,18.60
2005,08,02,10,29,18.70
2005,08,02,10,30,18.80
2005,08,02,10,31,18.80
2005,08,02,10,32,19.00
2005,08,02,10,33,19.10
2005,08,02,10,34,19.00
2005,08,02,10,35,18.90
2005,08,02,10,36,18.90
2005,08,02,10,37,18.90
2005,08,02,10,38,18.90
2005,08,02,10,39,19.00
2005,08,02,10,40,19.00
2005,08,02,10,41,19.10
2005,08,02,10,42,19.10
2005,08,02,10,43,19.20
2005,08,02,10,44,19.20
2005,08,02,10,45,19.10
2005,08,02,10,46,19.10
2005,08,02,10,47,19.00
2005,08,02,10,48,19.00
2005,08,02,10,49,19.10
2005,08,02,10,50,19.20
2005,08,02,10,51,19.30
2005,08,02,10,52,19.40
2005,08,02,10,53,19.50
2005,08,02,10,54,19.50
2005,08,02,10,55,19.40
2005,08,02,10,56,19.40
2005,08,02,10,57,19.40
2005,08,02,10,58,19.40
2005,08,02,10,59,19.50
2005,08,02,11,00,19.50
2005,08,02,11,01,19.50
2005,08,02,11,02,19.40
2005,08,02,11,03,19.40
2005,08,02,11,04,19.40
2005,08,02,11,05,19.30
2005,08,02,11,06,19.30
2005,08,02,11,07,19.30
2005,08,02,11,08,19.30
2005,08,02,11,09,19.40
2005,08,02,11,10,19.50
2005,08,02,11,11,19.60
2005,08,02,11,12,19.50
2005,08,02,11,13,19.50
2005,08,02,11,14,19.40
2005,08,02,11,15,19.40
2005,08,02,11,16,19.40
2005,08,02,11,17,19.40
2005,08,02,11,18,19.50
2005,08,02,11,19,19.50
2005,08,02,11,20,19.60
2005,08,02,11,21,19.60
2005,08,02,11,22,19.80
2005,08,02,11,23,19.80
2005,08,02,11,24,19.80
2005,08,02,11,25,19.70
2005,08,02,11,26,19.60
2005,08,02,11,27,19.50
2005,08,02,11,28,19.60
2005,08,02,11,29,19.60
2005,08,02,11,30,19.60
2005,08,02,11,31,19.70
2005,08,02,11,32,19.90
2005,08,02,11,33,19.90
2005,08,02,11,34,19.90
2005,08,02,11,35,20.00
2005,08,02,11,36,19.90
2005,08,02,11,37,19.90
2005,08,02,11,38,19.70
2005,08,02,11,39,19.70
2005,08,02,11,40,19.80
2005,08,02,11,41,19.80
2005,08,02,11,42,19.70
2005,08,02,11,43,19.70
2005,08,02,11,44,19.90
2005,08,02,11,45,19.90
2005,08,02,11,46,20.00
2005,08,02,11,47,20.00
2005,08,02,11,48,20.00
2005,08,02,11,49,19.90
2005,08,02,11,50,19.90
2005,08,02,11,51,19.80
2005,08,02,11,52,19.80
2005,08,02,11,53,19.80
2005,08,02,11,54,19.90
2005,08,02,11,55,19.90
2005,08,02,11,56,19.90
2005,08,02,11,57,19.90
2005,08,02,11,58,19.90
2005,08,02,11,59,20.00
2005,08,02,12,00,19.90
2005,08,02,12,01,19.90
2005,08,02,12,02,20.00
2005,08,02,12,03,19.90
2005,08,02,12,04,19.90
2005,08,02,12,05,19.80
2005,08,02,12,06,19.80
2005,08,02,12,07,19.70
2005,08,02,12,08,19.70
2005,08,02,12,09,19.80
2005,08,02,12,10,19.90
2005,08,02,12,11,19.80
2005,08,02,12,12,19.70
2005,08,02,12,13,19.80
2005,08,02,12,14,19.60
2005,08,02,12,15,19.40
2005,08,02,12,16,19.40
2005,08,02,12,17,19.40
2005,08,02,12,18,19.50
2005,08,02,12,19,19.60
2005,08,02,12,20,19.50
2005,08,02,12,21,19.30
2005,08,02,12,22,19.20
2005,08,02,12,23,19.10
2005,08,02,12,24,19.30
2005,08,02,12,25,19.30
2005,08,02,12,26,19.40
2005,08,02,12,27,19.50
2005,08,02,12,28,19.60
2005,08,02,12,29,19.60
2005,08,02,12,30,19.50
2005,08,02,12,31,19.50
2005,08,02,12,32,19.60
2005,08,02,12,33,19.50
2005,08,02,12,34,19.60
2005,08,02,12,35,19.70
2005,08,02,12,36,19.80
2005,08,02,12,37,20.00
2005,08,02,12,38,20.20
2005,08,02,12,39,20.30
2005,08,02,12,40,20.50
2005,08,02,12,41,20.80
2005,08,02,12,42,20.80
2005,08,02,12,43,20.90
2005,08,02,12,44,20.90
2005,08,02,12,45,21.00
2005,08,02,12,46,20.90
2005,08,02,12,47,20.90
2005,08,02,12,48,21.00
2005,08,02,12,49,21.00
2005,08,02,12,50,20.80
2005,08,02,12,51,20.60
2005,08,02,12,52,20.40
2005,08,02,12,53,20.30
2005,08,02,12,54,20.30
2005,08,02,12,55,20.30
2005,08,02,12,56,20.30
2005,08,02,12,57,20.30
2005,08,02,12,58,20.10
2005,08,02,12,59,20.20
2005,08,02,13,00,20.40
2005,08,02,13,01,20.50
2005,08,02,13,02,20.50
2005,08,02,13,03,20.50
2005,08,02,13,04,20.70
2005,08,02,13,05,20.90
2005,08,02,13,06,21.20
2005,08,02,13,07,21.30
2005,08,02,13,08,21.20
2005,08,02,13,09,21.40
2005,08,02,13,10,21.50
2005,08,02,13,11,21.60
2005,08,02,13,12,21.50
2005,08,02,13,13,21.40
2005,08,02,13,14,21.40
2005,08,02,13,15,21.40
2005,08,02,13,16,21.40
2005,08,02,13,17,21.50
2005,08,02,13,18,21.60
2005,08,02,13,19,21.60
2005,08,02,13,20,21.60
2005,08,02,13,21,21.60
2005,08,02,13,22,21.60
2005,08,02,13,23,21.50
2005,08,02,13,24,21.40
2005,08,02,13,25,21.50
2005,08,02,13,26,21.60
2005,08,02,13,27,21.60
2005,08,02,13,28,21.60
2005,08,02,13,29,21.40
2005,08,02,13,30,21.30
2005,08,02,13,31,21.30
2005,08,02,13,32,21.30
2005,08,02,13,33,21.30
2005,08,02,13,34,21.30
2005,08,02,13,35,21.30
2005,08,02,13,36,21.30
2005,08,02,13,37,21.20
2005,08,02,13,38,21.30
2005,08,02,13,39,21.30
2005,08,02,13,40,21.30
2005,08,02,13,41,21.30
2005,08,02,13,42,21.30
2005,08,02,13,43,21.30
2005,08,02,13,44,21.40
2005,08,02,13,45,21.40
2005,08,02,13,46,21.40
2005,08,02,13,47,21.50
2005,08,02,13,48,21.60
2005,08,02,13,49,21.60
2005,08,02,13,50,21.70
2005,08,02,13,51,21.80
2005,08,02,13,52,21.80
2005,08,02,13,53,21.80
2005,08,02,13,54,21.70
2005,08,02,13,55,21.80
2005,08,02,13,56,21.70
2005,08,02,13,57,21.60
2005,08,02,13,58,21.50
2005,08,02,13,59,21.50
2005,08,02,14,00,21.40
2005,08,02,14,01,21.40
2005,08,02,14,02,21.50
2005,08,02,14,03,21.50
2005,08,02,14,04,21.60
2005,08,02,14,05,21.60
2005,08,02,14,06,21.60
2005,08,02,14,07,21.70
2005,08,02,14,08,21.80
2005,08,02,14,09,22.00
2005,08,02,14,10,22.00
2005,08,02,14,11,22.00
2005,08,02,14,12,22.00
2005,08,02,14,13,21.90
2005,08,02,14,14,22.00
2005,08,02,14,15,22.10
2005,08,02,14,16,22.10
2005,08,02,14,17,22.00
2005,08,02,14,18,21.90
2005,08,02,14,19,21.80
2005,08,02,14,20,21.80
2005,08,02,14,21,21.80
2005,08,02,14,22,21.80
2005,08,02,14,23,21.70
2005,08,02,14,24,21.60
2005,08,02,14,25,21.60
2005,08,02,14,26,21.50
2005,08,02,14,27,21.40
2005,08,02,14,28,21.40
2005,08,02,14,29,21.30
2005,08,02,14,30,21.30
2005,08,02,14,31,21.30
2005,08,02,14,32,21.30
2005,08,02,14,33,21.30
2005,08,02,14,34,21.40
2005,08,02,14,35,21.60
2005,08,02,14,36,21.60
2005,08,02,14,37,21.70
2005,08,02,14,38,21.90
2005,08,02,14,39,22.00
2005,08,02,14,40,22.10
2005,08,02,14,41,22.00
2005,08,02,14,42,22.00
2005,08,02,14,43,22.00
2005,08,02,14,44,21.90
2005,08,02,14,45,21.70
2005,08,02,14,46,21.70
2005,08,02,14,47,21.60
2005,08,02,14,48,21.60
2005,08,02,14,49,21.50
2005,08,02,14,50,21.50
2005,08,02,14,51,21.60
2005,08,02,14,52,21.70
2005,08,02,14,53,21.90
2005,08,02,14,54,22.00
2005,08,02,14,55,22.20
2005,08,02,14,56,22.40
2005,08,02,14,57,22.50
2005,08,02,14,58,22.60
2005,08,02,14,59,22.40
2005,08,02,15,00,22.30
2005,08,02,15,01,22.40
2005,08,02,15,02,22.40
2005,08,02,15,03,22.30
2005,08,02,15,04,22.20
2005,08,02,15,05,22.10
2005,08,02,15,06,22.00
2005,08,02,15,07,21.90
2005,08,02,15,08,21.90
2005,08,02,15,09,21.90
2005,08,02,15,10,21.90
2005,08,02,15,11,22.00
2005,08,02,15,12,22.00
2005,08,02,15,13,22.00
2005,08,02,15,14,22.00
2005,08,02,15,15,22.10
2005,08,02,15,16,21.90
2005,08,02,15,17,21.90
2005,08,02,15,18,21.90
2005,08,02,15,19,21.80
2005,08,02,15,20,21.80
2005,08,02,15,21,22.00
2005,08,02,15,22,22.20
2005,08,02,15,23,22.30
2005,08,02,15,24,22.50
2005,08,02,15,25,22.50
2005,08,02,15,26,22.40
2005,08,02,15,27,22.30
2005,08,02,15,28,22.30
2005,08,02,15,29,22.30
2005,08,02,15,30,22.40
2005,08,02,15,31,22.50
2005,08,02,15,32,22.60
2005,08,02,15,33,22.70
2005,08,02,15,34,22.60
2005,08,02,15,35,22.60
2005,08,02,15,36,22.50
2005,08,02,15,37,22.30
2005,08,02,15,38,22.20
2005,08,02,15,39,22.20
2005,08,02,15,40,22.10
2005,08,02,15,41,22.10
2005,08,02,15,42,22.20
2005,08,02,15,43,22.30
2005,08,02,15,44,22.50
2005,08,02,15,45,22.50
2005,08,02,15,46,22.40
2005,08,02,15,47,22.40
2005,08,02,15,48,22.40
2005,08,02,15,49,22.40
2005,08,02,15,50,22.30
2005,08,02,15,51,22.30
2005,08,02,15,52,22.30
2005,08,02,15,53,22.30
2005,08,02,15,54,22.20
2005,08,02,15,55,22.10
2005,08,02,15,56,22.00
2005,08,02,15,57,21.90
2005,08,02,15,58,21.90
2005,08,02,15,59,21.70
2005,08,02,16,00,21.70
2005,08,02,16,01,21.70
2005,08,02,16,02,21.60
2005,08,02,16,03,21.70
2005,08,02,16,04,21.70
2005,08,02,16,05,21.70
2005,08,02,16,06,21.70
2005,08,02,16,07,21.70
2005,08,02,16,08,21.70
2005,08,02,16,09,21.70
2005,08,02,16,10,21.60
2005,08,02,16,11,21.70
2005,08,02,16,12,21.80
2005,08,02,16,13,22.00
2005,08,02,16,14,22.00
2005,08,02,16,15,22.10
2005,08,02,16,16,22.20
2005,08,02,16,17,22.30
2005,08,02,16,18,22.30
2005,08,02,16,19,22.00
2005,08,02,16,20,22.00
2005,08,02,16,21,21.90
2005,08,02,16,22,21.80
2005,08,02,16,23,21.70
2005,08,02,16,24,21.80
2005,08,02,16,25,21.80
2005,08,02,16,26,21.90
2005,08,02,16,27,22.10
2005,08,02,16,28,22.30
2005,08,02,16,29,22.40
2005,08,02,16,30,22.40
2005,08,02,16,31,22.60
2005,08,02,16,32,22.70
2005,08,02,16,33,22.70
2005,08,02,16,34,22.60
2005,08,02,16,35,22.40
2005,08,02,16,36,22.20
2005,08,02,16,37,22.20
2005,08,02,16,38,22.10
2005,08,02,16,39,22.10
2005,08,02,16,40,22.20
2005,08,02,16,41,22.20
2005,08,02,16,42,22.20
2005,08,02,16,43,22.20
2005,08,02,16,44,22.20
2005,08,02,16,45,22.10
2005,08,02,16,46,22.20
2005,08,02,16,47,22.10
2005,08,02,16,48,22.10
2005,08,02,16,49,22.20
2005,08,02,16,50,22.20
2005,08,02,16,51,22.30
2005,08,02,16,52,22.60
2005,08,02,16,53,22.70
2005,08,02,16,54,22.80
2005,08,02,16,55,22.90
2005,08,02,16,56,22.90
2005,08,02,16,57,23.00
2005,08,02,16,58,23.10
2005,08,02,16,59,23.40
2005,08,02,17,00,23.80
2005,08,02,17,01,24.20
2005,08,02,17,02,24.50
2005,08,02,17,03,24.70
2005,08,02,17,04,24.70
2005,08,02,17,05,24.60
2005,08,02,17,06,24.70
2005,08,02,17,07,24.90
2005,08,02,17,08,25.10
2005,08,02,17,09,25.00
2005,08,02,17,10,25.10
2005,08,02,17,11,25.10
2005,08,02,17,12,25.30
2005,08,02,17,13,25.40
2005,08,02,17,14,25.40
2005,08,02,17,15,25.40
2005,08,02,17,16,25.60
2005,08,02,17,17,25.70
2005,08,02,17,18,25.70
2005,08,02,17,19,25.70